Regional Weather Roundup
Issued by NWS Jackson, KY

Home | Current Version | Previous Version | Text Only | Print | Product List | Glossary On
Versions: 1 2 3 4 5 6 7 8 9 10 11 12 13 14 15 16 17 18 19 20 21 22 23 24 25 26 27
000
ASUS43 KJKL 221310
RWRJKL

EAST KENTUCKY HOURLY WEATHER ROUNDUP
NATIONAL WEATHER SERVICE JACKSON KY
800 AM EST WED FEB 22 2017

NOTE: "FAIR" INDICATES FEW OR NO CLOUDS BELOW 12,000 FEET WITH
NO SIGNIFICANT WEATHER AND/OR OBSTRUCTIONS TO VISIBILITY.

* THESE REPORTS ARE NOT UNDER NWS QUALITY CONTROL AND MAY NOT
  REPORT WEATHER SUCH AS PRECIPITATION AND FOG.

KYZ079-080-083-085-087-088-110-112-115-119-120-221400
...EASTERN KENTUCKY...

CITY           SKY/WX    TMP DP  RH WIND       PRES   REMARKS
JACKSON        CLOUDY    53  52  96 CALM      29.97R FOG
LONDON         LGT RAIN  54  50  86 N7        29.96R
SOMERSET*      DRIZZLE   52  52 100 N5        29.98R
MONTICELLO*    LGT RAIN  55  54  96 VRB6      29.97R
WILLIAMSBURG*  PTSUNNY   54  54 100 S6        29.96R
MIDDLESBORO*   LGT RAIN  52  52 100 CALM      30.00R
HARLAN APT*    CLOUDY    52  50  93 N3        29.98S
PIKE CO APT*   DRIZZLE   52  52 100 SE6       29.98R
BIG SANDY APT* DRIZZLE   53  53 100 CALM      29.98R
MOREHEAD APT*  CLOUDY    55  54  94 VRB3      29.98R FOG
ASHLAND*       CLOUDY    54  52  94 SE6       29.96R VSB 3/4
$$

KYZ035-036-041-042-044-050-067-078-099-221400
...CENTRAL KENTUCKY...

CITY           SKY/WX    TMP DP  RH WIND       PRES   REMARKS
MT STERLING*   LGT RAIN  54  54 100 SE5       29.97R
FLEMING/MASON* DRIZZLE   54  54 100 SE7       29.97R
DANVILLE*      RAIN      54  54 100 CALM      29.95S
LEXINGTON      CLOUDY    56  53  90 SE6       29.95R
FRANKFORT      CLOUDY    56  53  90 CALM      29.94R FOG
LOUISVILLE     CLOUDY    58  54  86 SE6       29.93R
LEBANON*       PTSUNNY   55  55 100 CALM      29.95R FOG
GLASGOW*       CLOUDY   N/A N/A N/A CALM      29.93S HAZE
BOWLING GREEN  CLOUDY    57  55  93 E3        29.93S FOG
$$

KYZ091>093-OHZ055-061-077-WVZ005-015-034-035-042-221400
...SOUTHERN OHIO/WEST VIRGINIA...

CITY           SKY/WX    TMP DP  RH WIND       PRES   REMARKS
COVINGTON      CLOUDY    56  55  97 S6        29.93R FOG
COLUMBUS       CLOUDY    55  54  96 S5        29.95R FOG
DAYTON         CLOUDY    55  54  96 S7        29.94R FOG
WILMINGTON     LGT RAIN  54  54 100 S5        29.94R FOG
HUNTINGTON     LGT RAIN  53  52  96 E5        29.97R
CHARLESTON     LGT RAIN  51  50  96 CALM      30.00R FOG
PINEVILLE*     LGT RAIN  50  47  90 MISG      30.05F
BECKLEY        LGT RAIN  46  43  89 S6        30.02R
BLUEFIELD      LGT RAIN  44  43  96 S5        30.02F FOG
LOGAN CO APT*  CLOUDY    52  50  93 CALM      29.99R
$$

VAZ002-007-008-TNZ017-027-036-066-071-221400
...SOUTHWEST VIRGINIA/EAST TENNESSEE...

CITY           SKY/WX    TMP DP  RH WIND       PRES   REMARKS
WISE*          RAIN      50  50 100 CALM      30.01S
JONESVILLE*    LGT RAIN  52  52 100 CALM      30.02R
ABINGDON*      RAIN      50  48  92 E9        30.02R
BRISTOL        LGT RAIN  50  48  93 CALM      30.01R FOG
MORRISTOWN*    PTSUNNY   52  52 100 NE6       29.97R FOG
SEVIERVILLE*   CLOUDY    52  50  93 CALM      29.97R
KNOXVILLE      LGT RAIN  56  51  84 N5        29.95R
LAFOLLETTE*    FOG       54  54 100 CALM      30.01R VSB 3/4
OAK RIDGE      LGT RAIN  55  52  89 E3        29.97R
CROSSVILLE     LGT RAIN  53  52  96 NE3       29.96R FOG
NASHVILLE      CLOUDY    57  55  93 E5        29.93R FOG
$$

...KEY TO REMARKS...
VSB - VISIBILITY IN MILES
WCI - WIND CHILL INDEX
HX  - HEAT INDEX

$$




USA.gov is the U.S. government's official web portal to all federal, state and local government web resources and services.